Weather History for K79J - April, 2013

Change the Weather History Date:

Saturday, April 6, 2013

  Actual Average (KCEW) Record (KCEW)
Temperature  
Mean Temperature 60 °F -  
Max Temperature 78 °F 75 °F 85 °F (1991)
Min Temperature 43 °F 48 °F 34 °F (1977)
Degree Days  
Heating Degree Days 4    
Growing Degree Days 10 (Base 50)    
Moisture  
Dew Point 42 °F    
Average Humidity 58    
Maximum Humidity 87    
Minimum Humidity 25    
Precipitation  
Precipitation 0.00 in - - ()
Sea Level Pressure  
Sea Level Pressure 30.11 in    
Wind  
Wind Speed 3 mph (South)    
Max Wind Speed 9 mph    
Max Gust Speed -    
Visibility 9 miles    
Events Fog    
Averages and records for this station are not official NWS values.
T = Trace of Precipitation, MM = Missing Value Source: NWS Daily Summary

Daily Weather History Graph

Daily Weather History Graph

Search for Another Location

Airport or City:

Trip Planner

Search our weather history database for the weather conditions in past years. The results will help you decide how hot, cold, wet, or windy it might be!

Date:

Astronomy

Apr. 06, 2013 Rise Set
Actual Time 6:27 AM CDT 7:08 PM CDT
Civil Twilight 6:03 AM CDT 7:32 PM CDT
Nautical Twilight 5:34 AM CDT 8:01 PM CDT
Astronomical Twilight 5:04 AM CDT 8:31 PM CDT
Moon 3:57 AM CDT (4/6) 3:48 PM CDT (4/6)
Length of Visible Light 13h 29m
Length of Day
12h 40m
Waning Crescent, 15% of the Moon is Illuminated
Apr 6
Waning Crescent
Apr 10
New
Apr 18
First Quarter
Apr 25
Full
May 2
Last Quarter

Hourly Weather History & Observations

Time (CDT) Temp. Windchill Dew Point Humidity Pressure Visibility Wind Dir Wind Speed Gust Speed Precip Events Conditions
12:56 AM 52.0 °F - 45.0 °F 77% 30.10 in 10.0 mi NW 3.5 mph - N/A   Clear
1:56 AM 48.0 °F - 42.1 °F 80% 30.09 in 10.0 mi Calm Calm - N/A   Clear
2:56 AM 45.0 °F 43.5 °F 41.0 °F 86% 30.09 in 5.0 mi SE 3.5 mph - N/A   Clear
3:04 AM 44.6 °F 43.1 °F 41.0 °F 87% 30.09 in 1.0 mi SE 3.5 mph - N/A   Mist
3:11 AM 44.6 °F - 41.0 °F 87% 30.09 in 0.5 mi Calm Calm - N/A Fog Fog
3:15 AM 46.4 °F - 42.8 °F 87% 30.09 in 1.2 mi Calm Calm - N/A   Partly Cloudy
3:17 AM 46.4 °F - 42.8 °F 87% 30.09 in 4.0 mi Calm Calm - N/A   Partly Cloudy
3:56 AM 44.1 °F - 39.0 °F 82% 30.09 in 9.0 mi Calm Calm - N/A   Clear
4:56 AM 44.1 °F - 39.0 °F 82% 30.10 in 10.0 mi Calm Calm - N/A   Clear
5:56 AM 43.0 °F - 37.0 °F 80% 30.11 in 10.0 mi Calm Calm - N/A   Clear
6:56 AM 43.0 °F - 37.9 °F 82% 30.12 in 10.0 mi Calm Calm - N/A   Clear
7:56 AM 52.0 °F - 45.0 °F 77% 30.14 in 10.0 mi Calm Calm - N/A   Clear
8:56 AM 60.1 °F - 44.1 °F 55% 30.15 in 10.0 mi ESE 4.6 mph - N/A   Clear
9:56 AM 64.9 °F - 43.0 °F 45% 30.16 in 10.0 mi SSE 4.6 mph - N/A   Clear
10:56 AM 70.0 °F - 37.9 °F 31% 30.17 in 10.0 mi SSE 8.1 mph - N/A   Clear
11:56 AM 73.0 °F - 39.9 °F 30% 30.16 in 10.0 mi South 8.1 mph - N/A   Clear
12:56 PM 75.0 °F - 41.0 °F 29% 30.14 in 10.0 mi SSW 5.8 mph - N/A   Clear
1:56 PM 75.0 °F - 41.0 °F 29% 30.12 in 10.0 mi Variable 4.6 mph - N/A   Clear
2:56 PM 77.0 °F - 39.9 °F 26% 30.10 in 10.0 mi Variable 5.8 mph - N/A   Clear
3:56 PM 77.0 °F - 39.0 °F 25% 30.08 in 10.0 mi Variable 3.5 mph - N/A   Clear
4:56 PM 78.1 °F - 39.0 °F 25% 30.07 in 10.0 mi Variable 5.8 mph - N/A   Clear
5:56 PM 77.0 °F - 39.0 °F 25% 30.08 in 10.0 mi SSE 3.5 mph - N/A   Clear
6:56 PM 72.0 °F - 43.0 °F 35% 30.09 in 10.0 mi SSE 3.5 mph - N/A   Clear
7:56 PM 68.0 °F - 45.0 °F 43% 30.10 in 10.0 mi West 9.2 mph - N/A   Clear
8:56 PM 64.9 °F - 45.0 °F 48% 30.11 in 10.0 mi WSW 3.5 mph - N/A   Clear
9:56 PM 60.1 °F - 46.0 °F 60% 30.12 in 10.0 mi Calm Calm - N/A   Clear
10:56 PM 59.0 °F - 46.0 °F 62% 30.13 in 10.0 mi Calm Calm - N/A   Clear
11:56 PM 55.0 °F - 46.9 °F 74% 30.13 in 10.0 mi Calm Calm - N/A   Clear